| time (UTC) | temp F | wind direction | speed knots | gust knots | rain 1hr in | rain 24hr in | rain mn in | humidity % | barometer mb |
| 20260505034526 | 59 | 182 | 0.0 | 1.7 | 0.00 | 0.00 | 0.00 | 66 | 1011.2 |
| 20260505034003 | 59 | 182 | 0.0 | 1.7 | 0.00 | 0.00 | 0.00 | 65 | 1011.2 |
| 20260505033506 | 59 | 182 | 0.0 | 1.7 | 0.00 | 0.00 | 0.00 | 65 | 1011.1 |
| 20260505033020 | 60 | 182 | 0.0 | 1.7 | 0.00 | 0.00 | 0.00 | 64 | 1011.1 |
| 20260505032503 | 60 | 175 | 0.0 | 1.7 | 0.00 | 0.00 | 0.00 | 64 | 1011.0 |
| 20260505032003 | 60 | 175 | 0.0 | 3.5 | 0.00 | 0.00 | 0.00 | 63 | 1011.0 |
| 20260505031516 | 60 | 188 | 0.0 | 3.5 | 0.00 | 0.00 | 0.00 | 63 | 1011.1 |
| 20260505031007 | 61 | 150 | 0.0 | 5.2 | 0.00 | 0.00 | 0.00 | 63 | 1011.1 |
| 20260505030507 | 61 | 176 | 0.9 | 5.2 | 0.00 | 0.00 | 0.00 | 62 | 1011.1 |
| 20260505030010 | 61 | 161 | 1.7 | 4.3 | 0.00 | 0.00 | 0.00 | 61 | 1011.1 |
| 20260505025504 | 61 | 177 | 0.9 | 3.5 | 0.00 | 0.00 | 0.00 | 60 | 1011.1 |
| 20260505025004 | 62 | 188 | 0.9 | 2.6 | 0.00 | 0.00 | 0.00 | 60 | 1011.1 |
| 20260505024540 | 62 | 147 | 0.0 | 4.3 | 0.00 | 0.00 | 0.00 | 60 | 1011.1 |
| 20260505024006 | 62 | 141 | 0.0 | 4.3 | 0.00 | 0.00 | 0.00 | 60 | 1010.9 |
| 20260505023506 | 62 | 167 | 0.9 | 4.3 | 0.00 | 0.00 | 0.00 | 59 | 1010.8 |
| 20260505023035 | 62 | 172 | 0.9 | 5.2 | 0.00 | 0.00 | 0.00 | 59 | 1010.8 |
| 20260505022504 | 62 | 149 | 1.7 | 5.2 | 0.00 | 0.00 | 0.00 | 60 | 1010.7 |
| 20260505022003 | 62 | 169 | 0.9 | 5.2 | 0.00 | 0.00 | 0.00 | 60 | 1010.8 |
| 20260505021528 | 62 | 144 | 0.9 | 5.2 | 0.00 | 0.00 | 0.00 | 60 | 1010.8 |
| 20260505021003 | 62 | 190 | 1.7 | 5.2 | 0.00 | 0.00 | 0.00 | 61 | 1010.9 |
| 20260505020507 | 62 | 166 | 1.7 | 5.2 | 0.00 | 0.00 | 0.00 | 61 | 1011.0 |
| 20260505020016 | 62 | 180 | 0.9 | 4.3 | 0.00 | 0.00 | 0.00 | 62 | 1011.0 |
| 20260505015506 | 62 | 169 | 0.9 | 4.3 | 0.00 | 0.00 | 0.00 | 61 | 1011.0 |
| 20260505015006 | 62 | 182 | 0.9 | 7.0 | 0.00 | 0.00 | 0.00 | 61 | 1010.8 |
| 20260505014525 | 62 | 190 | 1.7 | 7.0 | 0.00 | 0.00 | 0.00 | 61 | 1010.6 |
| 20260505014006 | 62 | 173 | 2.6 | 6.1 | 0.00 | 0.00 | 0.00 | 61 | 1010.5 |
| 20260505013504 | 63 | 159 | 1.7 | 6.1 | 0.00 | 0.00 | 0.00 | 60 | 1010.7 |
| 20260505013014 | 63 | 167 | 1.7 | 6.1 | 0.00 | 0.00 | 0.00 | 60 | 1010.8 |
| 20260505012504 | 63 | 159 | 0.9 | 3.5 | 0.00 | 0.00 | 0.00 | 59 | 1010.7 |
| 20260505012011 | 64 | 166 | 0.0 | 3.5 | 0.00 | 0.00 | 0.00 | 59 | 1010.7 |
| 20260505011508 | 64 | 163 | 0.0 | 2.6 | 0.00 | 0.00 | 0.00 | 58 | 1010.7 |
| 20260505011003 | 64 | 163 | 0.9 | 5.2 | 0.00 | 0.00 | 0.00 | 57 | 1010.6 |
| 20260505010503 | 65 | 161 | 0.9 | 5.2 | 0.00 | 0.00 | 0.00 | 57 | 1010.6 |
| 20260505010009 | 65 | 164 | 0.9 | 4.3 | 0.00 | 0.00 | 0.00 | 57 | 1010.6 |
| 20260505005504 | 65 | 225 | 0.0 | 7.0 | 0.00 | 0.00 | 0.00 | 56 | 1010.4 |
| 20260505005007 | 65 | 175 | 2.6 | 7.0 | 0.00 | 0.00 | 0.00 | 56 | 1010.2 |
| 20260505004531 | 65 | 211 | 1.7 | 7.8 | 0.00 | 0.00 | 0.00 | 55 | 1010.2 |
| 20260505004006 | 65 | 194 | 3.5 | 7.8 | 0.00 | 0.00 | 0.00 | 55 | 1010.2 |
| 20260505003505 | 65 | 161 | 2.6 | 7.0 | 0.00 | 0.00 | 0.00 | 55 | 1010.3 |
| 20260505003006 | 66 | 182 | 2.6 | 6.1 | 0.00 | 0.00 | 0.00 | 54 | 1010.3 |
| 20260505002503 | 66 | 173 | 1.7 | 6.1 | 0.00 | 0.00 | 0.00 | 53 | 1010.3 |
| 20260505002004 | 66 | 178 | 0.9 | 4.3 | 0.00 | 0.00 | 0.00 | 53 | 1010.3 |
| 20260505001508 | 66 | 151 | 1.7 | 5.2 | 0.00 | 0.00 | 0.00 | 52 | 1010.3 |
| 20260505001003 | 67 | 202 | 0.9 | 5.2 | 0.00 | 0.00 | 0.00 | 51 | 1010.3 |
| 20260505000505 | 67 | 167 | 1.7 | 5.2 | 0.00 | 0.00 | 0.00 | 50 | 1010.2 |
| 20260505000011 | 67 | 182 | 1.7 | 5.2 | 0.00 | 0.00 | 0.00 | 50 | 1010.3 |
| 20260504235505 | 68 | 146 | 1.7 | 5.2 | 0.00 | 0.00 | 0.00 | 49 | 1010.2 |
| 20260504235006 | 68 | 160 | 2.6 | 6.1 | 0.00 | 0.00 | 0.00 | 48 | 1010.2 |
| 20260504234506 | 68 | 182 | 1.7 | 6.1 | 0.00 | 0.00 | 0.00 | 48 | 1010.2 |
| 20260504234003 | 69 | 161 | 1.7 | 7.0 | 0.00 | 0.00 | 0.00 | 47 | 1010.2 |
| 20260504233506 | 69 | 149 | 2.6 | 7.0 | 0.00 | 0.00 | 0.00 | 46 | 1010.2 |
| 20260504233016 | 69 | 132 | 1.7 | 9.6 | 0.00 | 0.00 | 0.00 | 45 | 1010.1 |
| 20260504232508 | 69 | 143 | 2.6 | 9.6 | 0.00 | 0.00 | 0.00 | 44 | 1010.2 |
| 20260504232010 | 70 | 139 | 3.5 | 10.4 | 0.00 | 0.00 | 0.00 | 44 | 1010.2 |
| 20260504231525 | 70 | 198 | 2.6 | 10.4 | 0.00 | 0.00 | 0.00 | 44 | 1010.2 |
| 20260504231004 | 70 | 137 | 3.5 | 11.3 | 0.00 | 0.00 | 0.00 | 43 | 1010.1 |
| 20260504230504 | 70 | 144 | 5.2 | 11.3 | 0.00 | 0.00 | 0.00 | 42 | 1010.2 |
| 20260504230010 | 71 | 146 | 2.6 | 9.6 | 0.00 | 0.00 | 0.00 | 42 | 1010.3 |
| 20260504225508 | 71 | 150 | 2.6 | 12.2 | 0.00 | 0.00 | 0.00 | 41 | 1010.2 |
| 20260504225005 | 71 | 173 | 6.1 | 12.2 | 0.00 | 0.00 | 0.00 | 41 | 1010.1 |
| 20260504224513 | 72 | 159 | 4.3 | 13.9 | 0.00 | 0.00 | 0.00 | 42 | 1010.2 |
| 20260504224005 | 72 | 240 | 3.5 | 15.6 | 0.00 | 0.00 | 0.00 | 42 | 1010.1 |
| 20260504223507 | 72 | 151 | 7.8 | 15.6 | 0.00 | 0.00 | 0.00 | 40 | 1010.1 |
| 20260504223019 | 72 | 161 | 6.1 | 13.9 | 0.00 | 0.00 | 0.00 | 40 | 1010.1 |
| 20260504222504 | 73 | 140 | 6.1 | 13.0 | 0.00 | 0.00 | 0.00 | 40 | 1010.1 |
| 20260504222009 | 73 | 138 | 6.1 | 13.0 | 0.00 | 0.00 | 0.00 | 40 | 1010.1 |
| 20260504221514 | 73 | 148 | 4.3 | 12.2 | 0.00 | 0.00 | 0.00 | 40 | 1010.1 |
| 20260504221006 | 74 | 165 | 2.6 | 13.0 | 0.00 | 0.00 | 0.00 | 40 | 1010.1 |
| 20260504220510 | 75 | 113 | 5.2 | 13.0 | 0.00 | 0.00 | 0.00 | 38 | 1010.0 |
| 20260504220024 | 76 | 139 | 5.2 | 11.3 | 0.00 | 0.00 | 0.00 | 37 | 1010.0 |
| 20260504215504 | 76 | 159 | 5.2 | 11.3 | 0.00 | 0.00 | 0.00 | 36 | 1010.0 |
| 20260504215005 | 77 | 98 | 4.3 | 11.3 | 0.00 | 0.00 | 0.00 | 36 | 1009.9 |
| 20260504214509 | 77 | 178 | 4.3 | 11.3 | 0.00 | 0.00 | 0.00 | 35 | 1009.9 |
| 20260504214004 | 78 | 182 | 3.5 | 11.3 | 0.00 | 0.00 | 0.00 | 35 | 1009.9 |
| 20260504213507 | 78 | 108 | 5.2 | 12.2 | 0.00 | 0.00 | 0.00 | 34 | 1010.0 |
| 20260504213021 | 78 | 159 | 4.3 | 12.2 | 0.00 | 0.00 | 0.00 | 30 | 1010.1 |
| 20260504212506 | 78 | 167 | 1.7 | 6.1 | 0.00 | 0.00 | 0.00 | 31 | 1010.1 |
| 20260504212009 | 78 | 153 | 2.6 | 12.2 | 0.00 | 0.00 | 0.00 | 32 | 1010.0 |
| 20260504211521 | 78 | 236 | 3.5 | 12.2 | 0.00 | 0.00 | 0.00 | 31 | 1010.1 |
| 20260504211007 | 78 | 241 | 2.6 | 8.7 | 0.00 | 0.00 | 0.00 | 31 | 1010.0 |
| 20260504210505 | 77 | 160 | 2.6 | 7.8 | 0.00 | 0.00 | 0.00 | 31 | 1010.0 |
| 20260504210015 | 77 | 231 | 4.3 | 9.6 | 0.00 | 0.00 | 0.00 | 31 | 1010.1 |
| 20260504205508 | 77 | 226 | 3.5 | 9.6 | 0.00 | 0.00 | 0.00 | 32 | 1010.1 |
| 20260504205009 | 77 | 215 | 4.3 | 9.6 | 0.00 | 0.00 | 0.00 | 32 | 1010.2 |
| 20260504204529 | 77 | 202 | 2.6 | 8.7 | 0.00 | 0.00 | 0.00 | 34 | 1010.2 |
| 20260504204005 | 77 | 211 | 2.6 | 11.3 | 0.00 | 0.00 | 0.00 | 33 | 1010.2 |
| 20260504203503 | 77 | 253 | 2.6 | 11.3 | 0.00 | 0.00 | 0.00 | 32 | 1010.2 |
| 20260504203013 | 77 | 177 | 3.5 | 9.6 | 0.00 | 0.00 | 0.00 | 32 | 1010.3 |
| 20260504202504 | 77 | 270 | 0.9 | 13.0 | 0.00 | 0.00 | 0.00 | 34 | 1010.3 |
| 20260504202005 | 77 | 176 | 5.2 | 13.0 | 0.00 | 0.00 | 0.00 | 32 | 1010.4 |
| 20260504201517 | 77 | 153 | 5.2 | 11.3 | 0.00 | 0.00 | 0.00 | 33 | 1010.3 |
| 20260504201008 | 77 | 349 | 5.2 | 11.3 | 0.00 | 0.00 | 0.00 | 33 | 1010.6 |
| 20260504200507 | 77 | 189 | 2.6 | 9.6 | 0.00 | 0.00 | 0.00 | 33 | 1010.5 |
| 20260504200024 | 77 | 167 | 2.6 | 10.4 | 0.00 | 0.00 | 0.00 | 33 | 1010.7 |
| 20260504195506 | 77 | 271 | 4.3 | 10.4 | 0.00 | 0.00 | 0.00 | 31 | 1010.8 |
| 20260504195007 | 77 | 157 | 3.5 | 10.4 | 0.00 | 0.00 | 0.00 | 32 | 1010.8 |
| 20260504194513 | 77 | 281 | 5.2 | 9.6 | 0.00 | 0.00 | 0.00 | 33 | 1010.9 |
| 20260504194005 | 77 | 263 | 2.6 | 13.9 | 0.00 | 0.00 | 0.00 | 34 | 1011.0 |
| 20260504193509 | 77 | 232 | 6.1 | 13.9 | 0.00 | 0.00 | 0.00 | 33 | 1010.9 |
| 20260504193022 | 76 | 301 | 1.7 | 9.6 | 0.00 | 0.00 | 0.00 | 34 | 1011.1 |
| 20260504192502 | 76 | 136 | 0.9 | 11.3 | 0.00 | 0.00 | 0.00 | 33 | 1011.2 |
| 20260504192007 | 76 | 281 | 3.5 | 13.0 | 0.00 | 0.00 | 0.00 | 34 | 1011.2 |
| 20260504191516 | 76 | 228 | 4.3 | 13.0 | 0.00 | 0.00 | 0.00 | 33 | 1011.3 |
| 20260504191007 | 76 | 180 | 4.3 | 13.0 | 0.00 | 0.00 | 0.00 | 33 | 1011.3 |
| 20260504190504 | 76 | 304 | 3.5 | 13.0 | 0.00 | 0.00 | 0.00 | 35 | 1011.4 |
| 20260504190018 | 76 | 205 | 2.6 | 13.0 | 0.00 | 0.00 | 0.00 | 35 | 1011.5 |
| 20260504185506 | 76 | 157 | 3.5 | 10.4 | 0.00 | 0.00 | 0.00 | 34 | 1011.6 |
| 20260504185006 | 76 | 232 | 3.5 | 9.6 | 0.00 | 0.00 | 0.00 | 34 | 1011.6 |
| 20260504184533 | 76 | 136 | 4.3 | 14.8 | 0.00 | 0.00 | 0.00 | 33 | 1011.8 |
| 20260504184011 | 76 | 302 | 5.2 | 14.8 | 0.00 | 0.00 | 0.00 | 32 | 1012.0 |
| 20260504183513 | 76 | 224 | 3.5 | 10.4 | 0.00 | 0.00 | 0.00 | 33 | 1012.1 |
| 20260504183025 | 77 | 169 | 1.7 | 10.4 | 0.00 | 0.00 | 0.00 | 34 | 1012.1 |
| 20260504182511 | 77 | 285 | 3.5 | 10.4 | 0.00 | 0.00 | 0.00 | 32 | 1012.2 |
| 20260504182008 | 77 | 209 | 1.7 | 7.8 | 0.00 | 0.00 | 0.00 | 34 | 1012.2 |
| 20260504181516 | 76 | 174 | 2.6 | 7.8 | 0.00 | 0.00 | 0.00 | 32 | 1012.2 |
| 20260504181006 | 76 | 270 | 3.5 | 11.3 | 0.00 | 0.00 | 0.00 | 33 | 1012.2 |
| 20260504180506 | 76 | 230 | 3.5 | 11.3 | 0.00 | 0.00 | 0.00 | 30 | 1012.4 |
| 20260504180018 | 75 | 186 | 1.7 | 9.6 | 0.00 | 0.00 | 0.00 | 32 | 1012.3 |
| 20260504175507 | 75 | 216 | 3.5 | 13.0 | 0.00 | 0.00 | 0.00 | 33 | 1012.5 |
| 20260504175006 | 75 | 254 | 7.0 | 13.0 | 0.00 | 0.00 | 0.00 | 31 | 1012.6 |
| 20260504174522 | 75 | 214 | 3.5 | 12.2 | 0.00 | 0.00 | 0.00 | 33 | 1012.5 |
| 20260504174009 | 75 | 201 | 4.3 | 12.2 | 0.00 | 0.00 | 0.00 | 33 | 1012.6 |
| 20260504173511 | 75 | 221 | 3.5 | 7.8 | 0.00 | 0.00 | 0.00 | 32 | 1012.8 |
| 20260504173022 | 74 | 191 | 2.6 | 8.7 | 0.00 | 0.00 | 0.00 | 32 | 1012.8 |
| 20260504172510 | 74 | 238 | 2.6 | 13.0 | 0.00 | 0.00 | 0.00 | 32 | 1012.8 |
| 20260504172011 | 74 | 194 | 5.2 | 13.0 | 0.00 | 0.00 | 0.00 | 34 | 1012.9 |
| 20260504171528 | 74 | 204 | 4.3 | 8.7 | 0.00 | 0.00 | 0.00 | 33 | 1013.0 |
| 20260504171016 | 74 | 195 | 2.6 | 8.7 | 0.00 | 0.00 | 0.00 | 34 | 1013.0 |
| 20260504170508 | 74 | 252 | 4.3 | 10.4 | 0.00 | 0.00 | 0.00 | 35 | 1013.1 |
| 20260504151004 | 71 | 151 | 3.5 | 8.7 | 0.00 | 0.00 | 0.00 | 35 | 1014.4 |
| 20260504150508 | 70 | 196 | 0.9 | 7.0 | 0.00 | 0.00 | 0.00 | 37 | 1014.4 |
| 20260504141004 | 67 | 221 | 2.6 | 6.1 | 0.00 | 0.00 | 0.00 | 42 | 1014.6 |
| 20260504140507 | 66 | 216 | 2.6 | 6.1 | 0.00 | 0.00 | 0.00 | 43 | 1014.6 |
| 20260504130507 | 61 | 211 | 4.3 | 11.3 | 0.00 | 0.00 | 0.00 | 49 | 1015.0 |
| 20260504110506 | 48 | 227 | 0.0 | 3.5 | 0.00 | 0.00 | 0.00 | 77 | 1015.4 |
| 20260504100506 | 48 | 175 | 0.9 | 3.5 | 0.00 | 0.00 | 0.00 | 77 | 1015.5 |
| 20260504081540 | 45 | 246 | 0.0 | 1.7 | 0.00 | 0.00 | 0.00 | 82 | 1015.9 |
| 20260504081011 | 45 | 246 | 0.0 | 0.9 | 0.00 | 0.00 | 0.00 | 82 | 1015.8 |
| 20260504080510 | 45 | 246 | 0.0 | 1.7 | 0.00 | 0.00 | 0.00 | 81 | 1015.9 |
| 20260504050504 | 40 | 190 | 0.0 | 0.0 | 0.00 | 0.00 | 0.00 | 84 | 1016.1 |
| 20260504050014 | 40 | 190 | 0.0 | 0.0 | 0.00 | 0.00 | 0.00 | 83 | 1016.1 |
| 20260504045502 | 40 | 190 | 0.0 | 0.0 | 0.00 | 0.00 | 0.00 | 83 | 1016.1 |
| 20260504045003 | 40 | 190 | 0.0 | 0.0 | 0.00 | 0.00 | 0.00 | 83 | 1016.1 |
| 20260504044508 | 40 | 190 | 0.0 | 0.0 | 0.00 | 0.00 | 0.00 | 83 | 1016.2 |
| 20260504044003 | 40 | 190 | 0.0 | 0.0 | 0.00 | 0.00 | 0.00 | 84 | 1016.2 |
| 20260504043504 | 40 | 190 | 0.0 | 0.0 | 0.00 | 0.00 | 0.00 | 84 | 1016.2 |
| 20260504043033 | 40 | 190 | 0.0 | 0.0 | 0.00 | 0.00 | 0.00 | 83 | 1016.2 |
| 20260504042505 | 40 | 190 | 0.0 | 0.0 | 0.00 | 0.00 | 0.00 | 83 | 1016.1 |
| 20260504042009 | 40 | 190 | 0.0 | 0.0 | 0.00 | 0.00 | 0.00 | 82 | 1016.2 |
| 20260504041506 | 41 | 190 | 0.0 | 0.0 | 0.00 | 0.00 | 0.00 | 82 | 1016.1 |
| 20260504041003 | 41 | 190 | 0.0 | 0.0 | 0.00 | 0.00 | 0.00 | 82 | 1016.1 |
| 20260504040508 | 41 | 190 | 0.0 | 0.0 | 0.00 | 0.00 | 0.00 | 82 | 1016.0 |
| 20260504040022 | 41 | 190 | 0.0 | 0.0 | 0.00 | 0.00 | 0.00 | 81 | 1016.1 |
| 20260504035505 | 41 | 190 | 0.0 | 0.0 | 0.00 | 0.00 | 0.00 | 81 | 1016.1 |
| 20260504035004 | 41 | 190 | 0.0 | 0.0 | 0.00 | 0.00 | 0.00 | 81 | 1016.1 |